Weather History for Plattsburgh, NY

Change the Weather History Date:

Monday, April 1, 2013

  Actual Average Record
Temperature  
Mean Temperature 38 °F 36 °F  
Max Temperature 49 °F 46 °F 73 °F (1967)
Min Temperature 26 °F 26 °F 13 °F (1954)
Degree Days  
Heating Degree Days 27 29  
Month to date heating degree days 27 29  
Since 1 July heating degree days 6196 6712  
Cooling Degree Days 0 0  
Month to date cooling degree days 0 0  
Year to date cooling degree days 0 0  
Moisture  
Dew Point 26 °F    
Average Humidity 60    
Maximum Humidity 92    
Minimum Humidity 28    
Precipitation  
Precipitation T in - 1.23 in (1976)
Month to date precipitation T  
Year to date precipitation 2.36  
Sea Level Pressure  
Sea Level Pressure 29.65 in    
Wind  
Wind Speed 10 mph (SW)    
Max Wind Speed 21 mph    
Max Gust Speed 40 mph    
Visibility 9 miles    
Events Rain , Snow    
T = Trace of Precipitation, MM = Missing Value Source: NWS Daily Summary

Daily Weather History Graph

Daily Weather History Graph

Search for Another Location

Airport:

Trip Planner

Search our weather history database for the weather conditions in past years. The results will help you decide how hot, cold, wet, or windy it might be!

Date:

Astronomy

Apr. 01, 2013 Rise Set
Actual Time 6:34 AM EDT 7:21 PM EDT
Civil Twilight 6:04 AM EDT 7:51 PM EDT
Nautical Twilight 5:29 AM EDT 8:26 PM EDT
Astronomical Twilight 4:53 AM EDT 9:03 PM EDT
Moon 12:37 AM EDT 10:07 AM EDT
Length of Visible Light 13h 46m
Length of Day
12h 47m
Waning Gibbous, 67% of the Moon is Illuminated
Apr 1
Waning Gibbous
Apr 3
Last Quarter
Apr 10
New
Apr 18
First Quarter
Apr 25
Full

Hourly Weather History & Observations

Time (EDT) Temp. Windchill Dew Point Humidity Pressure Visibility Wind Dir Wind Speed Gust Speed Precip Events Conditions
12:53 AM 42.1 °F 35.7 °F 37.0 °F 82% 29.68 in 10.0 mi SSE 11.5 mph - N/A   Overcast
1:53 AM 42.1 °F 35.2 °F 36.0 °F 79% 29.65 in 10.0 mi SSE 12.7 mph - N/A   Overcast
2:53 AM 39.0 °F 30.3 °F 37.0 °F 93% 29.61 in 10.0 mi SSE 16.1 mph - N/A   Overcast
3:53 AM 39.9 °F 32.9 °F 37.0 °F 89% 29.59 in 10.0 mi SSE 11.5 mph - N/A   Overcast
4:53 AM 39.0 °F 32.8 °F 36.0 °F 89% 29.57 in 10.0 mi SE 9.2 mph - N/A   Scattered Clouds
5:53 AM 39.0 °F 36.8 °F 36.0 °F 89% 29.57 in 10.0 mi South 3.5 mph - N/A   Partly Cloudy
6:53 AM 37.9 °F 35.5 °F 36.0 °F 93% 29.56 in 10.0 mi South 3.5 mph - N/A   Mostly Cloudy
8:53 AM 44.1 °F 40.1 °F 37.0 °F 76% 29.54 in 10.0 mi Variable 6.9 mph - N/A   Clear
9:53 AM 44.1 °F 40.1 °F 37.0 °F 76% 29.53 in 10.0 mi South 6.9 mph - 0.00 in Rain Light Rain
10:53 AM 46.0 °F 40.6 °F 37.9 °F 73% 29.51 in 10.0 mi SE 11.5 mph - 0.00 in   Mostly Cloudy
11:53 AM 46.9 °F - 37.9 °F 71% 29.52 in 10.0 mi Variable 4.6 mph - N/A   Overcast
12:53 PM 48.9 °F - 35.1 °F 59% 29.51 in 10.0 mi WSW 9.2 mph 19.6 mph 0.00 in Rain Light Rain
1:53 PM 45.0 °F 38.9 °F 25.0 °F 46% 29.55 in 10.0 mi WSW 12.7 mph 31.1 mph 0.00 in   Mostly Cloudy
3:53 PM 42.1 °F 35.2 °F 14.0 °F 32% 29.61 in 10.0 mi WSW 12.7 mph 40.3 mph 0.00 in   Partly Cloudy
4:53 PM 41.0 °F 33.1 °F 10.0 °F 28% 29.64 in 10.0 mi SW 15.0 mph 31.1 mph N/A   Clear
5:53 PM 37.0 °F 28.1 °F 12.9 °F 37% 29.68 in 10.0 mi West 15.0 mph 32.2 mph N/A   Clear
6:53 PM 34.0 °F 28.0 °F 14.0 °F 44% 29.72 in 10.0 mi Variable 6.9 mph 20.7 mph N/A   Partly Cloudy
7:53 PM 33.1 °F 25.5 °F 12.0 °F 42% 29.74 in 10.0 mi West 9.2 mph 20.7 mph N/A   Overcast
8:53 PM 32.0 °F 23.0 °F 12.9 °F 45% 29.78 in 10.0 mi West 11.5 mph 26.5 mph N/A   Mostly Cloudy
9:53 PM 32.0 °F 22.5 °F 12.0 °F 44% 29.78 in 10.0 mi West 12.7 mph 18.4 mph N/A   Overcast
10:53 PM 28.9 °F 18.6 °F 18.0 °F 64% 29.79 in 9.0 mi WNW 12.7 mph 21.9 mph 0.00 in Snow Light Snow
11:31 PM 26.6 °F 16.2 °F 21.2 °F 80% 29.79 in 1.8 mi WNW 11.5 mph 20.7 mph 0.00 in Snow Light Snow
11:48 PM 26.6 °F 19.1 °F 21.2 °F 80% 29.79 in 3.0 mi West 6.9 mph - 0.00 in Snow Light Snow
11:53 PM 27.0 °F 20.5 °F 19.9 °F 75% 29.80 in 6.0 mi WNW 5.8 mph - 0.00 in Snow Light Snow